Rome, GA

7:50 PM EST on December 10, 2017 (GMT -0500)
Russell

Weather History for KRMG - June, 2012

Change the Weather History Date:

Thursday, June 28, 2012

  Actual Average Record
Temperature  
Mean Temperature 80 °F 78 °F  
Max Temperature 102 °F 89 °F 102 °F (2012)
Min Temperature 57 °F 67 °F 57 °F (2012)
Cooling Degree Days 14 13  
Month to date cooling degree days 302  
Year to date cooling degree days 470  
Since 1 June cooling degree days 302  
Growing Degree Days 30 (Base 50)    
Moisture  
Dew Point 58 °F    
Average Humidity 52    
Maximum Humidity 97    
Minimum Humidity 16    
Precipitation  
Precipitation 0.00 in 0.15 in 0.76 in (2001)
Month to date precipitation 3.79  
Year to date precipitation 26.66  
Sea Level Pressure  
Sea Level Pressure 29.99 in    
Wind  
Wind Speed 2 mph (NW)    
Max Wind Speed 10 mph    
Max Gust Speed 16 mph    
Visibility 10 miles    
Events      
T = Trace of Precipitation, MM = Missing Value Source: NWS Daily Summary

Daily Weather History Graph

Daily Weather History Graph

Search for Another Location

Airport or City:

Trip Planner

Search our weather history database for the weather conditions in past years. The results will help you decide how hot, cold, wet, or windy it might be!

Date:

Astronomy

Jun. 28, 2012 Rise Set
Actual Time 6:31 AM EDT 8:56 PM EDT
Civil Twilight 6:01 AM EDT 9:26 PM EDT
Nautical Twilight 5:25 AM EDT 10:02 PM EDT
Astronomical Twilight 4:45 AM EDT 10:41 PM EDT
Moon 3:37 PM EDT (6/28) 1:54 AM EDT (6/28)
Length of Visible Light 15h 24m
Length of Day
14h 25m
Waxing Gibbous, 67% of the Moon is Illuminated
Jun 28
Waxing Gibbous
Jul 3
Full
Jul 10
Last Quarter
Jul 19
New
Jul 26
First Quarter

Hourly Weather History & Observations

Time (EDT) Temp. Heat Index Dew Point Humidity Pressure Visibility Wind Dir Wind Speed Gust Speed Precip Events Conditions
12:53 AM 66.0 °F - 57.9 °F 75% 29.99 in 10.0 mi Calm Calm - N/A   Clear
1:53 AM 64.0 °F - 59.0 °F 84% 29.99 in 10.0 mi Calm Calm - N/A   Clear
2:53 AM 63.0 °F - 57.9 °F 84% 29.99 in 10.0 mi Calm Calm - N/A   Clear
3:53 AM 61.0 °F - 57.9 °F 90% 29.98 in 10.0 mi Calm Calm - N/A   Clear
4:53 AM 61.0 °F - 57.0 °F 87% 29.99 in 10.0 mi Calm Calm - N/A   Clear
5:53 AM 60.1 °F - 57.0 °F 90% 30.01 in 10.0 mi Calm Calm - N/A   Clear
6:53 AM 57.9 °F - 57.0 °F 97% 30.04 in 10.0 mi Calm Calm - N/A   Clear
7:53 AM 64.0 °F - 57.9 °F 80% 30.04 in 10.0 mi Calm Calm - N/A   Clear
8:53 AM 70.0 °F - 59.0 °F 68% 30.06 in 10.0 mi Calm Calm - N/A   Clear
9:53 AM 78.1 °F - 62.1 °F 58% 30.06 in 10.0 mi Variable 3.5 mph - N/A   Clear
10:53 AM 84.0 °F 85.4 °F 64.0 °F 51% 30.05 in 10.0 mi Variable 5.8 mph - N/A   Clear
11:53 AM 90.0 °F 91.7 °F 64.9 °F 43% 30.04 in 10.0 mi Calm Calm - N/A   Clear
12:53 PM 95.0 °F 96.0 °F 63.0 °F 34% 30.02 in 10.0 mi Variable 5.8 mph - N/A   Clear
1:53 PM 98.1 °F 97.7 °F 59.0 °F 27% 30.01 in 10.0 mi West 8.1 mph - N/A   Clear
2:53 PM 100.0 °F 98.8 °F 55.9 °F 23% 30.00 in 10.0 mi Variable 3.5 mph 16.1 mph N/A   Clear
3:53 PM 100.0 °F 97.9 °F 53.1 °F 21% 29.98 in 10.0 mi West 8.1 mph - N/A   Clear
4:53 PM 102.9 °F - 50.0 °F 17% 29.96 in 10.0 mi NW 10.4 mph 16.1 mph N/A   Clear
5:53 PM 102.0 °F - 52.0 °F 19% 29.94 in 10.0 mi NW 9.2 mph - N/A   Clear
6:53 PM 100.9 °F - 48.0 °F 17% 29.94 in 10.0 mi NW 8.1 mph - N/A   Clear
7:53 PM 97.0 °F 95.3 °F 55.9 °F 25% 29.94 in 10.0 mi NW 4.6 mph - N/A   Clear
8:53 PM 91.0 °F 90.0 °F 57.9 °F 33% 29.95 in 10.0 mi NW 3.5 mph - N/A   Clear
9:53 PM 82.0 °F 83.1 °F 63.0 °F 52% 29.95 in 10.0 mi Calm Calm - N/A   Clear
10:53 PM 78.1 °F - 62.1 °F 58% 29.96 in 10.0 mi Calm Calm - N/A   Clear
11:53 PM 75.0 °F - 64.0 °F 69% 29.96 in 10.0 mi Calm Calm - N/A   Clear